Regional Weather Roundup
Issued by NWS

Home | Current Version | Previous Version | Text Only | Print | Product List | Glossary On
Versions: 1 2 3 4 5 6 7 8 9 10 11 12 13 14 15 16 17 18 19 20 21 22 23 24 25 26 27 28 29 30 31 32 33 34 35 36 37 38 39 40 41 42 43 44 45 46 47 48 49 50
361
ASHW40 PHFO 240743
RWRHI

WEATHER ROUNDUP FOR HAWAII
NATIONAL WEATHER SERVICE HONOLULU HI
900 PM HST WED AUG 23 2017

THIS IS AN AUTOMATED REPORT THAT HAS NOT BEEN QUALITY CONTROLLED.

NOTE..."FAIR" INDICATES FEW OR NO CLOUDS BELOW 12,000 FEET WITH NO
SIGNIFICANT WEATHER AND/OR OBSTRUCTIONS TO VISIBILITY.

* - THESE SITES REPORT LIMITED FIELDS
# - BUOY DATA PROVIDED BY PACIFIC ISLANDS OCEAN OBSERVING SYSTEM.

HIZ001>004-240800-
KAUAI-NIIHAU-

CITY           SKY/WX    TMP DP  RH WIND       PRES   REMARKS
LIHUE APT      MOCLDY    80  70  71 E20       30.07R
PORT ALLEN*      N/A     79 N/A N/A NE17G23     N/A
POIPU*           N/A     79 N/A N/A NE10G21     N/A
PRINCEVILLE*     N/A     77 N/A N/A SE7G13      N/A
KOKOLE POINT*  NOT AVBL
MOLOAA DAIRY*    N/A     79  70  73 E7G13       N/A
WAIMEA HTS*      N/A     79  66  65 E8G16       N/A
PUU OPAE*        N/A     72  59  64 NE6         N/A
PUU LUA*       NOT AVBL
MAKAHA RIDGE*    N/A     72  61  68 NE2         N/A
$$

HIZ005>011-240800-
OAHU-

CITY           SKY/WX    TMP DP  RH WIND       PRES   REMARKS
HONOLULU       PTCLDY    76  67  73 E17G24    30.04R
KALAELOA       CLEAR     80  67  64 NE8       30.05R
KANEOHE MCB    NOT AVBL
WHEELER FIELD  MOCLDY    77  66  69 E8        30.06R
BELLOWS*         N/A    N/A N/A N/A NE22        N/A
KAHUKU*          N/A    N/A N/A N/A NE12G23     N/A
WHEELER*         N/A    N/A N/A N/A SE1         N/A
WAIANAE HARBOR   N/A    N/A N/A N/A NE7G14      N/A
DILLINGHAM*      N/A     91  81  70 W2          N/A  HX 110
KAHUKU TRN*      N/A     75  68  78 W13G24      N/A
KAWAILOA*        N/A     73  66  78 E14G25      N/A
KII*             N/A     81  72  74 E18G26      N/A
MAKUA RANGE*     N/A     81  64  57 NW12G22     N/A
OAHU FOREST NW   N/A     72  64  78 E18G46      N/A
SCHOFIELD BRK*   N/A    N/A N/A N/A SW1         N/A
SCHOFIELD S*   NOT AVBL
WAIANAE VLY*     N/A     90  77  66 VRB8G21     N/A  HX 102
KUAOKALA*        N/A     75  66  73 NE17G26     N/A
HONOULIUULI*   NOT AVBL
MOKUOLOE IS*   NOT AVBL
PALEHUA*         N/A     68  63  83 NE12G25     N/A
WAIAWA PHB*    NOT AVBL
$$

HIZ012>013-240800-
MOLOKAI-

CITY           SKY/WX    TMP DP  RH WIND       PRES   REMARKS
MOLOKAI AIRPT  CLEAR     77  66  68 NE14G20   30.05R
KALAUPAPA      NOT AVBL
MAKAPULAPAI*     N/A     79  70  73 E21G28      N/A
MOLOKAI 1*       N/A     68  59  73 NE6G23      N/A
PUU ALII*        N/A     61  59  94 N3G13       N/A
$$

HIZ016-240800-
KAHOOLAWE-

CITY           SKY/WX    TMP DP  RH WIND       PRES   REMARKS
KAHOOLAWE*     NOT AVBL
HAKIOAWA*        N/A     73  67  81 MISG      30.45S
HONOKANAIA*      N/A     80  67  63 NE16G35   29.95R
KANELOA*         N/A     75  66  73 E18G35    30.09R
KEALIALALO*    NOT AVBL
LUA MAKIKA*    NOT AVBL
$$

HIZ014>015-240800-
LANAI-

CITY           SKY/WX    TMP DP  RH WIND       PRES   REMARKS
LANAI CITY     FAIR      72  65  78 NE9       30.09R
LANAI 1*         N/A     72  68  88 NE18G29     N/A
$$

HIZ017>028-240800-
MAUI-

CITY           SKY/WX    TMP DP  RH WIND       PRES   REMARKS
KAHULUI        PTCLDY    79  69  71 NE17      30.04R
KAPALUA-W MAUI NOT AVBL
HANA AIRPORT   CLOUDY    75  70  83 E5        30.11R
HANA*          NOT AVBL
HALEAKALA SUMM NOT AVBL
MAALAEA BAY*     N/A     79 N/A N/A N20G31      N/A
HALEAKALA*     NOT AVBL
KAUPO GAP*     NOT AVBL
KULA 1*          N/A     52  45  78 E3          N/A
$$

HIZ023>026-240800-
BIG ISLAND OF HAWAII COAST AND LOWER SLOPES-

CITY           SKY/WX    TMP DP  RH WIND       PRES   REMARKS
KAILUA KONA    PTCLDY    80  61  52 N9        29.97R
HILO           PTCLDY    73  70  90 W6        30.07R
HONOKAA*         N/A     70 N/A N/A VRB1        N/A
KAWAIHAE MWT*    N/A     82 N/A N/A E5G10       N/A
KAWAIHAE*        N/A     82 N/A N/A N3        29.98R
SOUTH POINT*     N/A     75 N/A N/A VRB15G25    N/A
UPOLU AIRPORT* NOT AVBL
KAMUELA*         N/A     64  61  88 NE24      30.12S
HAKALAU*         N/A     43  41  93 W5          N/A
KALOKO-HONOKO*   N/A     81  70  69 E6        29.96R
PALI 2*          N/A     66  55  68 S15G31      N/A
KEALAKOMO*       N/A     79  64  61 VRB18G29    N/A
KAUPULEHU*       N/A     72  59  64 SE7         N/A
KAPAPALA*        N/A     66  65  98 NW5         N/A
LOWER KAHUKU*    N/A    N/A N/A N/A VRB1G8      N/A
PUHE CS*         N/A     82  57  42 E7G21       N/A
PUHO CS*         N/A     80  71  73 E3          N/A
PTA KEAMUKU*     N/A     61  50  67 E7G16       N/A
WAIKOLOA*        N/A     73  59  60 E18G35      N/A
$$

HIZ027>028-240800-
BIG ISLAND OF HAWAII INTERIOR AND SUMMMITS-

CITY           SKY/WX    TMP DP  RH WIND       PRES   REMARKS
BRADSHAW FIELD CLOUDY    53  46  78 SE9       30.35S
MK VISITOR CEN   N/A     55  23  28 E3          N/A
MAUNA KEA*       N/A     36   1  23 NE26        N/A  WCI  23
MAUNA LOA*       N/A     48   5  17 MISG        N/A
MAUNA LOA 1*   NOT AVBL
PTA KIPUKA*      N/A     55  54  94 NW5         N/A
PTA RANGE 17*    N/A     59  52  77 NW14G23     N/A
PTA WEST*        N/A     57  48  72 SE12G17     N/A
NENE CABIN*      N/A     48  39  71 N5          N/A
AHUMOA*          N/A     55  44  67 E5          N/A
PTA PORTABLE*  NOT AVBL
PUU MALI*        N/A     64  12  13 E8          N/A
$$

HIC003-240800-
NORTHWEST ISLANDS-

CITY           SKY/WX    TMP DP  RH WIND       PRES   REMARKS
MIDWAY ISLAND  CLEAR     81  73  78 E9        30.10R
MIDWAY NOS*      N/A     81 N/A N/A MISG      30.10R
FRENCH FRIGATE NOT AVBL
$$

PHZ110>124-180-240800-
BUOY REPORTS

STATION/POSITION TIME  TEMP    WIND        PRES    WAVE   SWELL
                       AIR SEA DIR/SP/G            HT/PER HT/DIR
                 (UTC) (F)     (DEG/KT/KT) (MB)    (FT/S) (FT/D)
BUOY 51001       0720   81 81   80/ 16/ 19 1019.4
BUOY 51101       0650   81 82   80/ 16/ 19 1019.5R   7/ 7   5/ 90
BUOY 51100       NOT AVBL
BUOY 51002       0720   81 81   80/ 17/ 23 1014.8
BUOY 51003       0650   81 82   70/ 16/ 17 1015.2R   6/ 8   3/ 80
BUOY 51004       0650      80   70/ 17/ 19 1015.7R   7/ 7   3/130
WAIMEA BAY#      0702      79                N/A     4/ 8
MOKAPU POINT#    0704      81                N/A     7/ 7   2/140
LANAI#           NOT AVBL
BARBERS PT 2#    NOT AVBL
PAUWELA#         0709      80                N/A     6/ 8   2/ 70
HILO#            0727      80                N/A     7/ 8   2/110
KANEOHE BAY#     NOT AVBL
KANEOHE BAY 2#   NOT AVBL
HANALEI#         0652      81                N/A     6/ 7   2/ 50
KAHULUI HARBOR   0706   78 81   50/ 15/ 20 1017.5
HONOLULU HARBOR  0706   80 81   70/  7/ 14 1018.0
PEARL HARBOR#    0700      81                N/A     4/ 7   2/160
KILO NALU        NOT AVBL
HILO HARBOR      0706   74 79  260/  7/  9 1017.9
MOKUOLOE         0636   80 83   70/ 15/ 20 1017.7R
NAWILIWILI       0706   79 83   60/ 13/ 18 1018.0
WHOTS BUOY       NOT AVBL
BUOY 51028       NOT AVBL
$$

......................KEY........................................
  SKY/WX - SKY CONDITIONS/PRESENT WEATHER
  TMP    - TEMPERATURE IN FAHRENHEIT
  DWPT   - DEWPOINT IN FAHRENHEIT
  RH     - RELATIVE HUMIDITY IN PERCENT
  WIND   - DIRECTION AND SPEED /MPH FOR ISLANDS...KTS FOR BUOYS/
  PRES   - MEAN SEA LEVEL PRESSURE IN INCHES OF HG
  VSB    - VISIBILITY IN MILES
  HX     - HEAT INDEX
  WCI    - WIND CHILL INDEX
  VRB    - VARIABLE WIND DIRECTION
  N/A    - NOT AVAILABLE




USA.gov is the U.S. government's official web portal to all federal, state and local government web resources and services.